Date,TemperatureHighF,TemperatureAvgF,TemperatureLowF,DewpointHighF,DewpointAvgF,DewpointLowF,HumidityHigh,HumidityAvg,HumidityLow,PressureMaxIn,PressureMinIn,WindSpeedMaxMPH,WindSpeedAvgMPH,GustSpeedMaxMPH,PrecipitationSumIn
2013-1-1,44,41,37,44,39,32,99,94,79,30.16,30.02,2,0,6,1.04
2013-1-2,42,37,35,41,34,31,98,90,81,30.23,30.05,3,0,6,0.00
2013-1-3,42,36,30,32,28,23,86,74,52,30.42,30.21,2,0,4,0.00
2013-1-4,42,33,25,26,23,21,87,69,51,30.50,30.41,3,0,5,0.00
2013-1-5,46,35,25,35,26,22,90,71,44,30.48,30.30,3,0,5,0.08
2013-1-6,44,40,36,40,36,29,97,86,72,30.34,30.18,3,0,8,0.00
2013-1-7,47,36,27,32,28,23,87,71,53,30.47,30.34,3,0,8,0.00
2013-1-8,52,38,27,36,30,25,93,74,53,30.46,30.34,2,0,4,0.00
2013-1-9,48,43,38,47,40,33,96,89,77,30.51,30.37,3,0,4,0.03
2013-1-10,60,52,46,53,49,45,98,89,75,30.50,30.18,2,0,7,0.00
2013-1-11,67,61,54,61,57,51,97,86,76,30.17,30.05,7,1,14,0.02
2013-1-12,72,65,60,65,61,55,98,89,76,30.13,30.00,3,0,7,0.01
2013-1-13,69,63,57,61,57,54,96,81,67,30.04,29.94,9,1,12,0.78
2013-1-14,61,43,36,60,42,35,99,97,93,30.34,30.04,3,0,7,1.48
2013-1-15,43,40,38,43,40,38,100,100,99,30.24,30.02,2,0,4,2.25
2013-1-16,47,42,40,47,42,40,100,100,100,30.11,29.96,2,0,4,0.44
2013-1-17,41,36,30,41,36,30,100,99,97,30.40,29.96,4,1,10,0.94
2013-1-18,40,32,24,36,29,24,99,90,74,30.60,30.40,2,0,3,0.39
2013-1-19,48,35,26,38,30,25,98,81,55,30.49,30.23,4,0,8,0.00
2013-1-20,54,44,36,37,31,25,78,63,48,30.25,30.15,3,0,7,0.00
2013-1-21,46,36,28,28,20,11,86,54,31,30.27,30.13,4,0,10,0.00
2013-1-22,32,28,20,11,5,-1,62,40,27,30.42,30.26,3,0,6,0.00
2013-1-23,43,34,23,27,15,3,66,45,34,30.44,30.18,5,0,10,0.00
2013-1-24,42,33,26,33,15,3,70,50,27,30.47,30.19,5,0,10,0.00
2013-1-25,33,29,26,32,23,6,97,81,41,30.41,30.16,2,0,3,0.00
2013-1-26,46,36,29,37,31,26,98,83,55,30.42,30.25,3,0,5,0.04
2013-1-27,45,36,26,37,30,24,94,78,60,30.50,30.38,2,0,5,0.01
2013-1-28,56,47,39,50,43,36,93,84,66,30.40,30.25,3,0,10,0.01
2013-1-29,66,55,45,56,50,43,96,83,68,30.26,29.88,0,0,4,0.00
2013-1-30,68,56,41,61,53,36,98,88,71,29.87,29.52,14,2,22,2.54
2013-1-31,41,37,32,35,26,22,83,64,48,30.10,29.72,8,1,13,0.00
2013-2-1,41,28,21,32,15,9,86,59,42,30.47,30.04,8,0,12,0.01
2013-2-2,37,28,20,32,22,14,84,77,68,30.43,30.14,2,0,9,0.01
2013-2-3,44,36,28,38,29,21,96,77,56,30.22,30.05,3,0,11,0.08
2013-2-4,46,35,24,30,25,21,89,68,43,30.21,30.01,3,0,6,0.00
2013-2-5,56,48,43,42,36,29,82,65,54,30.05,29.97,3,0,10,0.00
2013-2-6,58,46,35,41,34,30,97,67,36,30.23,30.06,5,0,6,0.00
2013-2-7,53,46,40,43,36,30,87,69,48,30.18,29.97,2,0,4,0.00
2013-2-8,53,45,37,50,39,29,99,80,59,30.32,29.92,3,0,9,0.11
2013-2-9,52,40,28,30,26,23,85,59,33,30.40,30.28,7,1,9,0.00
2013-2-10,60,46,38,45,33,25,95,65,27,30.28,30.01,11,0,11,0.23
2013-2-11,55,50,45,55,44,30,99,83,56,30.16,30.01,4,0,9,0.02
2013-2-12,53,45,36,38,31,28,87,62,40,30.21,29.90,5,0,9,0.03
2013-2-13,46,41,36,46,40,33,99,93,87,30.02,29.72,2,0,9,0.28
2013-2-14,51,42,35,36,34,32,90,74,53,30.12,30.03,5,0,10,0.00
2013-2-15,57,43,34,41,36,31,88,76,54,30.14,30.05,3,0,13,0.05
2013-2-16,40,31,23,30,22,14,90,70,37,30.19,30.05,4,0,15,0.00
2013-2-17,42,30,20,18,13,9,73,52,27,30.34,30.19,3,0,9,0.00
2013-2-18,58,42,24,29,23,13,78,50,32,30.36,30.03,7,1,15,0.00
2013-2-19,53,44,34,45,29,15,97,61,27,30.23,29.95,6,1,19,0.19
2013-2-20,42,34,26,21,17,11,68,51,31,30.29,30.21,2,0,6,0.00
2013-2-21,50,38,25,36,22,15,91,57,29,30.30,30.04,8,1,10,0.47
2013-2-22,54,46,38,48,43,36,99,88,74,30.11,30.03,3,0,9,0.06
2013-2-23,54,48,44,49,45,42,98,90,76,30.06,29.86,3,0,6,0.06
2013-2-24,54,43,31,40,29,24,92,62,32,30.11,29.95,3,0,6,0.00
2013-2-25,55,43,33,35,29,24,76,59,40,30.09,29.82,5,0,7,0.00
2013-2-26,59,48,42,50,42,35,98,81,60,29.82,29.46,9,1,21,0.48
2013-2-27,47,41,39,37,34,31,82,76,63,29.90,29.72,9,1,14,0.01
2013-2-28,40,37,35,32,28,25,85,70,58,30.05,29.86,4,0,14,0.01
2013-3-1,41,37,34,34,31,28,88,79,66,30.04,29.99,3,0,6,0.03
2013-3-2,38,34,30,36,29,19,95,83,65,30.12,29.98,2,0,8,0.14
2013-3-3,36,30,25,23,19,16,79,64,48,30.16,30.10,4,0,6,0.01
2013-3-4,49,36,21,25,21,16,91,58,28,30.26,30.04,4,0,5,0.00
2013-3-5,47,39,33,47,36,23,99,87,53,30.08,29.67,7,0,13,1.44
2013-3-6,34,32,30,30,28,24,90,84,79,30.32,29.90,2,0,12,0.03
2013-3-7,37,34,32,30,28,26,89,79,70,30.41,30.28,2,0,5,0.00
2013-3-8,50,39,27,30,26,24,87,63,40,30.47,30.34,7,1,10,0.01
2013-3-9,62,47,30,36,31,26,85,57,31,30.36,30.20,3,0,7,0.00
2013-3-10,70,57,42,40,35,28,78,48,26,30.20,30.00,7,0,11,0.00
2013-3-11,64,57,44,53,47,35,96,72,38,29.99,29.76,10,1,17,0.73
2013-3-12,51,44,37,42,35,29,94,73,51,30.14,29.89,3,0,8,0.01
2013-3-13,46,39,33,31,25,16,79,58,41,30.37,30.11,2,0,16,0.00
2013-3-14,44,36,26,25,19,16,70,50,36,30.46,30.29,3,0,7,0.00
2013-3-15,66,50,32,44,35,25,90,60,40,30.32,29.92,6,1,10,0.00
2013-3-16,75,65,57,50,46,42,57,50,40,29.92,29.77,7,1,17,0.00
2013-3-17,72,64,55,53,48,44,75,57,44,29.95,29.82,4,0,12,0.00
2013-3-18,64,55,50,55,50,45,98,83,60,29.89,29.77,8,0,12,0.82
2013-3-19,59,48,36,52,32,14,98,60,22,30.16,29.86,5,1,10,0.04
2013-3-20,55,44,33,32,20,14,73,40,23,30.17,29.91,12,1,13,0.00
2013-3-21,42,33,23,22,13,9,63,46,32,30.08,29.99,4,0,8,0.00
2013-3-22,46,36,26,26,19,15,66,51,36,30.14,30.05,2,0,5,0.00
2013-3-23,53,44,38,43,36,25,91,72,54,30.08,29.80,7,1,7,0.02
2013-3-24,55,48,40,52,46,34,98,92,76,29.83,29.38,3,0,12,0.73
2013-3-25,40,35,32,35,29,26,90,80,70,30.07,29.63,6,1,18,0.07
2013-3-26,41,35,31,32,28,26,89,76,57,30.34,30.07,3,0,8,0.02
2013-3-27,49,39,31,30,26,22,84,62,37,30.39,30.30,3,0,7,0.00
2013-3-28,56,42,28,31,23,16,90,52,25,30.41,30.28,4,0,6,0.00
2013-3-29,48,41,32,41,32,18,95,74,40,30.40,30.28,2,0,5,0.20
2013-3-30,60,50,41,47,44,41,98,83,59,30.28,30.03,3,0,6,0.21
2013-3-31,62,55,50,57,53,47,99,93,74,30.03,29.86,12,0,12,0.79
2013-4-1,64,52,40,54,43,34,99,76,44,30.10,29.91,6,0,9,0.00
2013-4-2,55,46,34,34,24,18,66,44,26,30.26,30.10,4,0,8,0.00
2013-4-3,56,48,34,27,22,19,63,38,26,30.31,30.21,5,1,11,0.00
2013-4-4,50,43,40,42,35,19,96,77,31,30.22,30.02,3,0,7,0.65
2013-4-5,62,50,39,45,38,32,98,70,33,30.13,30.01,4,0,7,0.01
2013-4-6,71,55,38,45,38,32,93,57,27,30.22,30.07,7,0,8,0.00
2013-4-7,72,64,50,49,43,35,65,47,37,30.16,30.04,8,1,13,0.00
2013-4-8,76,65,51,56,49,43,82,58,44,30.10,30.00,7,1,14,0.00
2013-4-9,80,68,54,59,54,49,87,62,43,30.17,30.00,6,0,14,0.00
2013-4-10,83,72,57,61,56,51,87,60,43,30.10,29.86,3,0,9,0.00
2013-4-11,83,71,61,63,57,54,95,62,40,29.88,29.61,4,1,17,0.93
2013-4-12,63,58,51,60,48,37,98,71,40,29.95,29.56,7,1,12,0.19
2013-4-13,68,57,42,46,40,34,93,55,31,30.09,29.95,4,0,7,0.00
2013-4-14,69,57,44,51,44,36,88,65,41,30.06,29.94,6,0,10,0.01
2013-4-15,75,65,53,58,54,48,90,69,52,30.08,29.93,3,0,8,0.00
2013-4-16,82,69,56,64,59,52,94,71,50,30.22,30.08,4,0,9,0.00
2013-4-17,74,66,61,64,60,58,92,83,69,30.22,30.04,3,0,8,0.02
2013-4-18,82,70,58,64,57,52,98,68,37,30.05,29.81,8,1,17,0.00
2013-4-19,74,59,45,62,50,35,96,76,55,30.09,29.64,8,1,17,1.19
2013-4-20,61,48,34,39,32,29,94,57,32,30.32,30.10,5,0,7,0.00
2013-4-21,65,52,40,43,35,31,83,55,30,30.42,30.27,5,0,6,0.00
2013-4-22,69,57,42,47,40,36,88,57,37,30.36,30.15,2,0,6,0.00
2013-4-23,72,59,44,51,45,40,91,62,42,30.24,30.03,3,0,7,0.00
2013-4-24,72,59,46,62,52,43,95,79,56,30.24,29.98,9,0,17,0.30
2013-4-25,63,52,39,45,39,33,96,66,37,30.38,30.24,2,0,7,0.00
2013-4-26,67,55,39,47,40,33,92,60,33,30.43,30.31,3,0,5,0.00
2013-4-27,56,54,52,55,51,43,98,91,64,30.38,30.13,0,0,3,0.79
2013-4-28,58,55,52,58,55,51,100,99,98,30.14,29.96,3,0,9,1.50
2013-4-29,71,60,52,59,55,52,100,85,55,30.06,29.94,1,0,8,0.00
2013-4-30,78,65,50,62,54,49,98,71,42,30.08,29.97,5,0,7,0.00
2013-5-1,77,67,57,60,56,51,93,69,51,30.19,30.08,2,0,8,0.00
2013-5-2,77,65,54,62,55,50,89,71,50,30.20,30.09,3,0,5,0.00
2013-5-3,76,65,55,58,53,48,91,68,47,30.13,29.96,3,0,9,0.00
2013-5-4,61,57,53,56,50,39,98,79,49,29.97,29.89,3,0,7,0.58
2013-5-5,58,54,51,58,54,51,100,99,98,29.89,29.78,1,0,7,0.93
2013-5-6,60,53,48,53,49,46,100,88,69,29.93,29.76,3,0,6,0.20
2013-5-7,68,57,47,56,50,45,98,79,58,29.98,29.90,2,0,5,0.00
2013-5-8,71,62,56,61,57,54,95,83,62,30.07,29.94,5,0,7,0.00
2013-5-9,79,67,53,64,57,51,98,73,48,30.12,30.01,5,0,7,0.00
2013-5-10,74,66,58,63,58,54,93,75,63,30.07,29.93,4,0,11,0.00
2013-5-11,73,65,55,68,59,50,96,80,65,30.00,29.85,2,0,9,0.20
2013-5-12,64,56,47,51,40,29,91,58,30,30.15,29.99,2,0,10,0.00
2013-5-13,65,54,39,45,36,31,94,55,29,30.26,30.15,2,0,8,0.00
2013-5-14,75,61,42,55,47,35,95,62,42,30.25,30.04,5,0,11,0.00
2013-5-15,83,73,61,61,57,53,82,59,43,30.14,29.96,3,0,11,0.00
2013-5-16,80,70,60,62,58,51,83,66,48,30.06,29.95,4,0,7,0.00
2013-5-17,80,70,62,66,62,57,93,77,59,30.08,29.98,0,0,5,0.00
2013-5-18,72,68,63,69,66,61,99,93,87,30.05,29.99,1,0,4,0.45
2013-5-19,76,67,62,72,66,61,99,95,81,30.10,29.99,6,0,14,1.16
2013-5-20,80,70,60,70,65,59,100,85,62,30.13,29.98,1,0,4,0.00
2013-5-21,86,73,65,72,66,60,98,79,53,30.03,29.89,3,0,9,0.00
2013-5-22,84,70,62,70,64,60,97,82,57,29.94,29.81,5,0,9,0.11
2013-5-23,80,70,64,68,61,53,98,74,50,30.00,29.87,7,0,9,0.00
2013-5-24,68,62,53,55,48,41,90,63,40,30.28,30.00,3,0,9,0.01
2013-5-25,73,61,45,51,45,41,95,60,32,30.36,30.18,4,0,6,0.00
2013-5-26,74,63,54,56,51,44,93,66,43,30.30,30.18,2,0,5,0.02
2013-5-27,82,69,54,63,57,51,94,66,43,30.23,30.08,3,0,9,0.00
2013-5-28,84,74,62,65,61,57,89,66,48,30.17,30.05,3,0,8,0.00
2013-5-29,84,75,62,67,62,57,92,65,50,30.20,30.07,5,0,7,0.00
2013-5-30,85,74,62,68,61,57,94,66,42,30.22,30.07,3,0,5,0.00
2013-5-31,86,75,63,68,62,58,92,66,46,30.16,30.03,2,0,8,0.00
2013-6-1,86,76,66,69,65,60,93,69,48,30.05,29.91,7,0,16,0.15
2013-6-2,76,69,66,71,68,65,99,95,78,29.95,29.87,6,0,13,1.86
2013-6-3,78,70,64,69,64,58,99,82,61,29.99,29.89,2,0,5,0.00
2013-6-4,81,72,59,66,61,57,96,71,48,30.04,29.96,2,0,6,0.00
2013-6-5,84,71,63,71,65,59,96,82,60,30.03,29.90,2,0,5,0.21
2013-6-6,80,71,63,70,66,62,99,85,66,29.93,29.74,3,0,7,0.00
2013-6-7,81,73,68,69,67,64,94,82,60,29.85,29.70,3,0,5,0.07
2013-6-8,79,70,65,69,66,63,99,86,60,30.06,29.84,4,0,6,0.00
2013-6-9,84,71,64,71,67,62,96,87,62,30.09,29.96,6,0,10,0.16
2013-6-10,80,72,67,71,67,63,98,86,57,29.96,29.86,9,1,9,0.54
2013-6-11,84,74,64,71,67,63,99,79,54,30.03,29.94,3,0,7,0.00
2013-6-12,89,80,69,77,71,66,96,77,59,30.03,29.90,3,0,6,0.00
2013-6-13,84,77,70,79,71,63,94,82,72,29.91,29.71,4,0,12,0.27
2013-6-14,81,71,60,65,60,57,98,72,46,30.04,29.87,3,0,6,0.00
2013-6-15,83,72,59,67,62,57,97,71,50,30.13,30.03,3,0,6,0.00
2013-6-16,84,75,64,70,66,62,93,74,57,30.11,29.98,4,0,7,0.33
2013-6-17,80,73,69,73,70,68,99,89,70,30.03,29.90,4,0,5,0.28
2013-6-18,76,70,65,75,68,63,99,91,83,29.96,29.83,4,0,7,0.60
2013-6-19,82,72,62,70,65,61,98,82,58,30.07,29.93,2,0,5,0.00
2013-6-20,84,74,64,71,66,62,97,79,55,30.18,30.06,2,0,6,0.00
2013-6-21,82,74,66,69,66,64,96,78,59,30.24,30.14,1,0,5,0.00
2013-6-22,85,74,64,71,65,62,97,74,53,30.23,30.07,3,0,5,0.00
2013-6-23,85,76,65,70,66,63,97,75,50,30.20,30.08,2,0,4,0.03
2013-6-24,86,77,68,74,68,66,97,77,53,30.20,30.05,3,0,6,0.00
2013-6-25,83,75,70,74,70,68,95,84,70,30.14,30.00,1,0,5,0.00
2013-6-26,83,74,70,76,71,68,97,90,68,30.04,29.86,3,0,9,0.31
2013-6-27,84,75,67,76,71,66,99,89,76,29.91,29.77,6,0,11,0.65
2013-6-28,85,75,69,75,71,67,99,87,64,29.83,29.64,3,0,11,0.03
2013-6-29,83,74,66,72,66,61,99,77,48,29.69,29.63,5,0,6,0.25
2013-6-30,85,76,65,68,64,59,94,69,42,29.77,29.67,5,0,8,0.00
2013-7-1,82,71,64,73,67,63,98,86,62,29.89,29.75,1,0,7,0.69
2013-7-2,81,71,66,73,69,65,98,92,68,30.05,29.89,1,0,6,0.38
2013-7-3,73,70,66,72,69,66,99,97,94,30.16,30.05,1,0,3,0.50
2013-7-4,77,70,66,75,69,65,100,96,87,30.16,30.07,2,0,4,0.27
2013-7-5,79,74,69,74,70,68,100,90,76,30.17,30.09,2,0,5,0.05
2013-7-6,80,71,67,74,69,67,99,94,78,30.15,30.08,1,0,4,0.98
2013-7-7,71,68,67,71,68,66,100,99,97,30.17,30.08,2,0,4,1.62
2013-7-8,84,72,67,73,69,66,100,89,62,30.21,30.09,0,0,4,0.00
2013-7-9,88,78,69,76,72,68,98,83,58,30.16,30.03,2,0,5,0.00
2013-7-10,87,76,72,78,72,70,96,87,68,30.08,29.91,6,0,8,0.00
2013-7-11,85,75,70,75,71,69,98,88,63,29.97,29.87,1,0,5,0.12
2013-7-12,82,74,67,71,67,62,99,80,56,29.97,29.89,2,0,5,0.00
2013-7-13,85,73,66,72,67,63,96,83,57,30.06,29.94,2,0,5,0.20
2013-7-14,84,74,67,77,71,67,99,88,68,30.20,30.06,1,0,5,0.06
2013-7-15,87,77,67,74,69,66,98,79,57,30.29,30.20,1,0,5,0.00
2013-7-16,89,79,69,75,71,67,97,77,55,30.32,30.21,4,0,5,0.00
2013-7-17,90,79,71,77,72,68,97,79,56,30.28,30.13,4,0,8,0.03
2013-7-18,87,78,70,76,72,69,98,82,61,30.23,30.04,1,0,4,0.01
2013-7-19,89,79,71,76,72,69,97,79,59,30.10,29.95,3,0,7,0.00
2013-7-20,89,80,72,76,72,69,95,78,56,30.01,29.88,5,0,8,0.00
2013-7-21,84,75,71,76,71,67,96,89,68,30.00,29.91,4,0,5,0.27
2013-7-22,81,74,70,74,71,69,98,92,72,29.98,29.82,2,0,8,0.28
2013-7-23,82,75,69,74,71,68,99,88,75,29.92,29.80,4,0,9,0.00
2013-7-24,83,75,68,74,72,67,98,89,71,29.88,29.80,2,0,6,0.19
2013-7-25,84,73,64,72,66,61,99,80,52,30.04,29.88,3,0,5,0.00
2013-7-26,84,72,62,72,66,60,97,83,60,30.07,29.97,2,0,12,0.29
2013-7-27,77,72,68,72,69,65,99,90,73,30.00,29.87,1,0,7,0.03
2013-7-28,80,73,66,69,66,57,97,78,56,30.06,29.90,3,0,5,0.00
2013-7-29,80,69,58,62,58,54,93,70,43,30.19,30.06,0,0,4,0.00
2013-7-30,78,68,60,68,63,58,97,83,58,30.23,30.14,0,0,3,0.00
2013-7-31,77,70,66,72,68,64,98,92,78,30.14,29.96,4,0,9,0.11
2013-8-1,82,75,70,75,69,65,98,83,63,29.98,29.92,1,0,3,0.01
2013-8-2,85,74,65,70,66,63,97,77,52,30.04,29.96,3,0,5,0.00
2013-8-3,84,75,67,72,68,63,96,81,63,30.03,29.96,2,0,6,0.00
2013-8-4,84,76,69,73,67,59,97,75,48,30.07,29.99,1,0,5,0.00
2013-8-5,86,74,62,67,62,52,96,69,32,30.07,29.96,2,0,5,0.00
2013-8-6,85,76,69,72,68,65,92,78,59,30.00,29.93,1,0,7,0.00
2013-8-7,81,76,72,76,72,70,98,90,81,30.02,29.92,5,0,6,0.36
2013-8-8,81,75,70,76,72,68,96,89,81,30.04,29.96,1,0,5,0.02
2013-8-9,88,77,70,76,72,68,98,87,65,30.06,29.97,3,0,8,0.32
2013-8-10,88,76,71,77,73,70,99,91,65,30.11,30.04,1,0,6,0.50
2013-8-11,85,75,70,77,72,69,100,92,69,30.15,30.04,4,0,7,0.50
2013-8-12,83,75,69,77,72,68,99,91,77,30.10,29.96,3,0,6,0.00
2013-8-13,84,75,70,76,72,68,98,90,67,29.96,29.86,4,0,7,0.17
2013-8-14,79,70,63,67,63,57,95,80,55,30.06,29.93,2,0,6,0.00
2013-8-15,80,69,60,68,62,56,89,77,59,30.09,30.00,0,0,6,0.00
2013-8-16,80,71,65,69,65,62,93,81,64,30.09,30.02,3,0,4,0.00
2013-8-17,74,69,64,67,64,62,97,87,73,30.14,30.07,0,0,3,0.39
2013-8-18,78,70,66,73,68,66,100,92,72,30.19,30.10,2,0,6,0.11
2013-8-19,78,72,68,72,69,67,99,90,73,30.15,30.06,1,0,5,0.03
2013-8-20,83,73,69,74,70,67,98,90,72,30.17,30.07,2,0,12,0.30
2013-8-21,81,73,69,74,71,68,99,93,74,30.20,30.11,1,0,5,0.12
2013-8-22,84,76,69,75,71,68,99,86,67,30.17,30.02,1,0,5,0.02
2013-8-23,85,75,69,75,71,67,98,88,66,30.08,30.00,1,0,5,0.01
2013-8-24,84,73,67,73,67,62,99,82,57,30.22,30.07,1,0,4,0.00
2013-8-25,83,72,62,68,63,60,96,74,53,30.36,30.23,1,0,4,0.00
2013-8-26,83,72,62,68,64,61,98,77,54,30.31,30.13,4,0,5,0.00
2013-8-27,84,74,65,73,68,63,97,82,63,30.15,30.03,0,0,3,0.00
2013-8-28,86,77,68,74,71,67,98,82,61,30.06,29.96,3,0,6,0.00
2013-8-29,87,79,73,76,73,70,96,83,63,30.00,29.91,3,0,5,0.00
2013-8-30,88,78,70,77,72,68,98,82,57,30.00,29.89,4,0,6,0.00
2013-8-31,88,79,71,76,72,69,96,82,61,29.95,29.82,4,0,8,0.14
2013-9-1,84,74,69,75,71,68,99,91,70,29.89,29.81,2,0,7,0.28
2013-9-2,84,74,69,74,71,68,99,89,69,29.94,29.83,5,0,7,0.00
2013-9-3,84,74,66,74,69,63,99,84,65,30.01,29.84,2,0,5,0.93
2013-9-4,84,72,62,68,64,60,97,77,55,30.12,30.01,1,0,4,0.00
2013-9-5,83,71,62,68,63,59,97,77,49,30.16,30.10,1,0,5,0.00
2013-9-6,84,73,63,68,64,61,98,76,48,30.18,30.06,2,0,5,0.00
2013-9-7,84,73,62,70,65,60,97,78,55,30.12,29.99,4,0,7,0.00
2013-9-8,84,74,66,73,68,65,97,81,57,30.01,29.93,1,0,5,0.00
2013-9-9,87,76,66,72,68,65,98,78,50,30.09,30.00,3,0,7,0.00
2013-9-10,87,77,67,73,68,66,98,77,52,30.21,30.09,3,0,7,0.00
2013-9-11,88,77,69,72,69,66,97,78,55,30.22,30.09,3,0,5,0.00
2013-9-12,85,73,68,74,70,66,96,88,68,30.09,29.89,4,0,7,0.81
2013-9-13,76,69,59,69,60,51,99,76,45,29.99,29.89,2,0,5,0.00
2013-9-14,75,63,52,58,53,50,96,73,50,30.09,29.98,4,0,6,0.00
2013-9-15,80,67,54,65,59,53,97,76,54,30.18,30.09,2,0,5,0.00
2013-9-16,84,70,62,67,63,60,98,78,50,30.17,30.10,1,0,5,0.00
2013-9-17,78,70,62,67,63,59,91,78,62,30.22,30.13,2,0,4,0.00
2013-9-18,74,67,63,66,63,60,94,86,68,30.22,30.13,3,0,4,0.00
2013-9-19,82,70,60,68,64,59,98,81,57,30.19,30.04,5,0,6,0.00
2013-9-20,85,73,63,70,65,62,98,78,51,30.07,29.87,4,0,7,0.00
2013-9-21,69,66,61,67,65,60,99,94,86,29.88,29.74,1,0,5,2.42
2013-9-22,76,64,54,64,57,53,100,80,48,29.94,29.83,2,0,8,0.00
2013-9-23,79,65,53,63,58,52,98,78,52,30.04,29.93,3,0,5,0.00
2013-9-24,81,68,59,66,62,58,98,82,52,30.05,29.89,2,0,5,0.00
2013-9-25,68,66,65,68,65,63,99,96,89,29.90,29.83,0,0,2,0.38
2013-9-26,77,67,62,68,63,58,100,88,62,30.03,29.88,1,0,4,0.00
2013-9-27,80,66,57,65,59,55,99,80,47,30.17,30.03,1,0,3,0.00
2013-9-28,78,65,57,65,59,55,98,82,57,30.23,30.10,2,0,4,0.00
2013-9-29,71,65,60,62,60,58,95,84,68,30.15,30.01,3,0,4,0.00
2013-9-30,77,65,58,64,60,56,99,83,55,30.09,30.00,3,0,4,0.00
2013-10-1,77,66,58,65,61,57,99,85,59,30.17,30.05,5,0,7,0.00
2013-10-2,80,68,60,68,63,59,98,84,64,30.18,30.07,0,0,4,0.00
2013-10-3,81,71,64,67,64,63,97,81,58,30.14,30.04,3,0,6,0.00
2013-10-4,81,70,61,67,64,60,99,81,56,30.17,30.08,1,0,4,0.00
2013-10-5,83,72,62,69,65,60,97,80,56,30.13,29.99,1,0,4,0.00
2013-10-6,83,72,62,67,63,61,97,77,49,29.99,29.79,4,0,13,0.05
2013-10-7,68,60,53,60,53,48,98,80,53,30.09,29.86,3,0,5,0.18
2013-10-8,71,59,48,56,50,46,95,76,54,30.17,30.09,5,0,7,0.00
2013-10-9,74,62,51,60,54,49,95,77,56,30.23,30.12,3,0,4,0.00
2013-10-10,74,62,54,58,53,51,96,76,49,30.18,30.05,1,0,5,0.00
2013-10-11,76,63,52,60,55,50,97,77,54,30.10,30.00,1,0,3,0.00
2013-10-12,78,65,55,63,57,54,98,78,46,30.11,30.02,1,0,3,0.00
2013-10-13,75,65,58,64,60,55,98,84,65,30.22,30.11,0,0,3,0.00
2013-10-14,77,67,59,64,60,56,96,79,57,30.24,30.10,0,0,6,0.00
2013-10-15,73,66,60,64,61,58,97,85,68,30.14,30.02,1,0,3,0.00
2013-10-16,68,63,58,61,59,55,95,86,76,30.06,29.96,1,0,7,0.03
2013-10-17,68,62,56,68,60,51,100,92,81,30.02,29.86,1,0,7,0.21
2013-10-18,65,55,48,52,49,46,97,80,57,30.09,29.98,3,0,7,0.00
2013-10-19,63,54,47,55,50,44,97,85,69,30.06,29.93,2,0,7,0.01
2013-10-20,61,49,40,45,41,38,97,77,44,30.14,30.05,3,0,5,0.00
2013-10-21,67,53,42,52,45,39,99,78,50,30.16,30.02,1,0,7,0.00
2013-10-22,65,57,51,53,50,47,89,79,62,30.03,29.87,1,0,4,0.00
2013-10-23,51,47,37,50,40,33,95,78,59,30.14,29.82,3,0,7,0.00
2013-10-24,53,44,37,42,38,33,95,80,60,30.31,30.12,1,0,6,0.00
2013-10-25,50,39,31,34,29,26,90,69,43,30.49,30.31,4,0,6,0.00
2013-10-26,56,44,30,39,32,27,97,67,37,30.39,30.15,5,0,9,0.00
2013-10-27,62,54,49,51,43,34,82,67,51,30.18,30.10,1,0,6,0.00
2013-10-28,66,58,52,56,52,49,95,82,64,30.29,30.14,5,0,6,0.00
2013-10-29,69,59,52,58,53,50,98,82,57,30.35,30.23,3,0,6,0.00
2013-10-30,76,65,58,60,56,54,91,74,51,30.28,30.13,2,0,13,0.00
2013-10-31,72,66,59,60,57,55,88,75,63,30.14,29.64,8,1,20,0.00
2013-11-1,71,63,53,64,55,44,97,76,53,29.82,29.67,4,0,17,0.52
2013-11-2,63,52,45,49,43,37,96,72,42,30.12,29.80,1,0,6,0.00
2013-11-3,57,47,40,43,38,36,95,74,47,30.35,30.11,2,0,6,0.00
2013-11-4,62,48,38,43,38,34,92,70,42,30.45,30.35,2,0,3,0.00
2013-11-5,63,52,44,45,41,38,87,67,45,30.47,30.34,3,0,4,0.00
2013-11-7,52,44,38,37,34,32,78,69,58,30.31,30.20,0,0,0,0.00
2013-11-8,52,42,32,37,29,23,93,63,33,30.44,30.31,4,0,7,0.00
2013-11-9,54,43,32,38,34,29,94,70,49,30.37,30.25,4,0,5,0.00
2013-11-10,63,56,43,45,36,26,65,48,35,30.35,30.26,2,0,4,0.00
2013-11-11,60,48,35,36,31,27,81,54,32,30.36,30.19,1,0,7,0.00
2013-11-12,51,40,28,38,27,15,65,59,53,30.61,30.16,1,0,5,0.00
2013-11-13,41,32,24,20,18,16,77,59,39,30.72,30.53,3,0,7,0.00
2013-11-14,52,38,25,28,23,20,88,59,32,30.55,30.34,2,0,6,0.00
2013-11-15,46,39,32,42,33,25,94,79,56,30.34,30.21,0,0,2,0.06
2013-11-16,63,51,43,55,48,42,98,89,72,30.27,30.12,0,0,2,0.00
2013-11-17,65,57,50,65,56,48,99,94,82,30.12,29.84,3,0,9,0.72
2013-11-18,62,56,43,61,45,32,98,72,37,30.18,29.89,1,0,6,0.05
2013-11-19,51,43,36,32,28,25,73,57,37,30.27,30.18,3,0,8,0.00
2013-11-20,55,44,33,34,31,28,86,62,39,30.36,30.22,2,0,4,0.00
2013-11-21,59,49,38,47,39,31,81,70,55,30.41,30.30,3,0,5,0.00
2013-11-22,56,53,50,56,50,44,98,90,77,30.34,30.21,1,0,4,0.12
2013-11-23,52,44,31,52,37,19,97,78,54,30.45,30.23,3,0,7,0.00
2013-11-24,35,29,22,18,12,8,67,52,34,30.63,30.45,4,0,8,0.00
2013-11-25,36,31,26,30,16,9,90,56,44,30.54,30.25,2,0,4,0.10
2013-11-26,43,37,33,43,36,30,100,97,90,30.25,29.79,1,0,6,1.66
2013-11-27,36,30,27,36,28,22,99,91,78,30.36,29.87,3,0,4,0.06
2013-11-28,39,30,22,25,21,18,86,70,51,30.55,30.35,2,0,4,0.02
2013-11-29,47,35,25,32,25,22,94,70,39,30.65,30.55,4,0,5,0.00
2013-11-30,50,38,27,34,29,23,92,72,50,30.58,30.35,2,0,5,0.00
2013-12-1,53,41,27,38,32,24,92,72,53,30.35,30.04,1,0,8,0.00
2013-12-2,47,45,44,44,42,37,92,86,72,30.04,29.84,0,0,2,0.05
2013-12-3,55,49,45,51,47,43,99,93,85,29.92,29.86,2,0,3,0.15
2013-12-4,67,58,49,58,53,47,97,84,70,29.99,29.89,7,0,9,0.00
2013-12-5,71,66,60,64,61,56,94,85,74,30.02,29.90,10,0,12,0.01
2013-12-6,67,46,37,64,45,37,99,95,79,30.20,29.89,2,0,9,1.23
2013-12-7,39,36,35,37,34,31,98,92,84,30.45,30.22,4,0,8,0.01
2013-12-8,42,38,35,42,37,32,99,96,86,30.38,30.13,2,0,4,0.74
2013-12-9,50,45,39,50,44,38,100,99,96,30.18,30.06,1,0,4,0.47
2013-12-10,40,35,29,39,32,25,99,90,71,30.42,30.04,1,0,5,0.36
2013-12-11,44,33,24,31,26,23,96,77,53,30.51,30.40,1,0,7,0.00
2013-12-12,36,30,24,23,19,15,83,66,44,30.59,30.45,2,0,5,0.00
2013-12-13,44,34,23,27,22,19,89,64,38,30.47,30.20,2,0,5,0.00
2013-12-14,46,42,37,46,38,26,99,87,62,30.22,29.83,2,0,6,0.38
2013-12-15,44,36,30,44,32,26,98,87,79,30.25,29.88,0,0,4,0.00
2013-12-16,47,38,29,35,31,25,93,77,59,30.29,30.16,9,0,11,0.00
2013-12-17,53,44,36,37,32,23,79,63,51,30.26,30.03,5,0,9,0.00
2013-12-18,44,36,27,28,23,20,85,61,41,30.39,30.27,2,0,7,0.00
2013-12-19,55,40,26,31,27,23,89,63,36,30.37,30.19,1,0,5,0.00
2013-12-20,57,46,33,42,35,27,87,67,51,30.22,30.09,0,0,2,0.00
2013-12-21,72,60,49,63,51,41,85,72,65,30.08,29.80,12,1,22,0.02
2013-12-22,71,59,54,63,57,54,99,94,71,30.06,29.80,9,1,17,1.62
2013-12-23,54,43,34,54,40,26,99,88,73,30.38,30.03,3,0,6,0.07
2013-12-24,34,31,24,27,21,14,81,68,51,30.53,30.37,1,0,6,0.00
2013-12-25,40,30,20,25,20,15,83,69,51,30.53,30.37,2,0,5,0.00
2013-12-26,46,36,27,30,26,22,86,68,49,30.45,30.36,2,0,5,0.00
2013-12-27,49,36,26,30,25,22,88,65,38,30.53,30.41,1,0,3,0.00
2013-12-28,41,34,27,38,30,23,97,83,64,30.45,30.01,3,0,4,0.42
2013-12-29,46,42,39,46,42,38,100,99,97,30.08,29.90,5,0,6,0.90
2013-12-30,42,37,34,41,34,30,99,89,76,30.27,30.07,1,0,4,0.01
2013-12-31,39,33,28,31,26,24,91,77,56,30.51,30.26,3,0,5,0.00
2014-1-1,44,33,24,31,27,21,93,78,54,30.41,30.14,3,0,6,0.01
2014-1-2,40,32,20,39,30,15,98,90,81,30.23,29.81,3,0,7,0.47